Temp
-5 -5 -6 -6 -6 -5 -5 -5 -5 -5 -4 -4 -4 -4 -4 -4 -5 -5 -5 -5 -4 -3 -3 -3 -3 -3 -2 -2 -1 -1 -0 -0 0 0 1 1 1 1 1 0 0 -0 -0 -0 0 0 0 0 0 0 0 -0 -1 -1 -1 -1 -1 -0 0 0 0 1 0 -0 -1 -1 -1 -1 -1 -1 -1 -1 -1 -1
-5 -6 -6 -6 -6 -6 -6 -5 -5 -5 -5 -5 -5 -4 -4 -5 -5 -5 -5 -5 -4 -4 -4 -3 -3 -3 -2 -2 -1 -1 -1 -0 -0 0 0 1 1 1 1 0 0 -0 -1 -1 -1 -1 -0 -0 -0 -0 0 -0 -0 -1 -1 -1 -1 -1 -1 -1 -0 -0 -0 -1 -1 -2 -2 -2 -2 -2 -2 -2 -2 -1
-6 -6 -6 -6 -6 -6 -6 -6 -6 -5 -5 -5 -5 -5 -5 -5 -5 -5 -5 -5 -4 -4 -4 -3 -3 -3 -3 -3 -2 -2 -1 -1 -1 -1 -0 -0 0 0 0 0 -0 -0 -1 -1 -1 -2 -2 -1 -1 -1 -0 -0 -1 -1 -1 -1 -1 -1 -1 -1 -1 -1 -1 -1 -1 -2 -2 -2 -2 -3 -3 -3 -2 -2
-6 -6 -6 -6 -6 -6 -6 -6 -6 -6 -6 -6 -5 -5 -5 -5 -5 -5 -5 -5 -5 -5 -4 -4 -4 -4 -3 -3 -3 -3 -2 -2 -2 -1 -1 -1 -1 -1 -0 -0 -0 -1 -1 -1 -2 -2 -2 -2 -1 -1 -1 -1 -1 -1 -1 -1 -1 -1 -1 -2 -2 -2 -2 -2 -2 -2 -2 -2 -2 -3 -3 -3 -3 -2
-7 -6 -6 -6 -6 -6 -6 -6 -6 -6 -6 -6 -6 -6 -6 -5 -5 -5 -5 -6 -5 -5 -5 -5 -5 -4 -4 -4 -3 -3 -3 -3 -2 -2 -2 -2 -1 -1 -1 -1 -1 -1 -1 -2 -2 -2 -2 -2 -2 -1 -1 -1 -1 -1 -1 -1 -1 -1 -1 -2 -2 -2 -2 -3 -3 -3 -3 -3 -3 -3 -4 -4 -4 -4
-7 -7 -6 -6 -6 -6 -6 -6 -6 -6 -6 -6 -6 -6 -6 -6 -6 -5 -5 -6 -5 -5 -5 -5 -5 -5 -5 -4 -4 -4 -3 -3 -3 -3 -3 -2 -2 -2 -2 -1 -1 -2 -2 -2 -2 -2 -2 -3 -3 -2 -2 -2 -1 -2 -2 -2 -2 -3 -3 -3 -3 -4 -4 -4 -4 -4 -5 -5 -5 -5 -5 -5 -5 -4
-7 -7 -7 -7 -7 -7 -7 -7 -7 -7 -7 -7 -6 -6 -6 -6 -6 -6 -6 -6 -6 -5 -5 -5 -5 -5 -5 -5 -4 -4 -4 -3 -3 -3 -3 -3 -3 -3 -2 -2 -2 -2 -2 -3 -3 -3 -3 -4 -4 -4 -3 -3 -2 -2 -3 -4 -4 -4 -5 -5 -5 -5 -5 -5 -6 -6 -6 -6 -5 -5 -5 -5 -5 -5
-7 -7 -7 -7 -7 -7 -7 -7 -7 -7 -7 -7 -7 -7 -7 -6 -6 -6 -6 -6 -6 -6 -6 -6 -5 -5 -5 -5 -5 -5 -4 -4 -4 -4 -3 -4 -4 -3 -3 -3 -3 -2 -3 -3 -3 -4 -4 -4 -5 -5 -5 -5 -4 -3 -3 -4 -5 -5 -5 -5 -5 -5 -5 -5 -5 -5 -6 -6 -6 -6 -6 -5 -5 -5
-7 -7 -7 -7 -7 -7 -7 -7 -7 -7 -7 -7 -7 -7 -7 -7 -6 -6 -6 -6 -6 -6 -6 -6 -6 -6 -5 -5 -5 -5 -5 -5 -5 -4 -4 -4 -4 -4 -4 -4 -4 -3 -3 -3 -4 -4 -5 -5 -5 -5 -6 -6 -6 -6 -5 -5 -5 -5 -5 -4 -4 -4 -5 -5 -5 -5 -5 -6 -6 -6 -6 -6 -6 -6
-8 -8 -8 -7 -7 -7 -8 -8 -8 -7 -7 -7 -7 -7 -7 -7 -6 -6 -6 -6 -6 -6 -6 -6 -6 -6 -6 -6 -5 -5 -5 -5 -5 -5 -5 -5 -5 -5 -4 -4 -4 -4 -4 -4 -4 -5 -5 -5 -6 -6 -6 -7 -7 -7 -6 -6 -5 -4 -4 -4 -4 -4 -4 -4 -4 -4 -5 -5 -5 -5 -4 -4 -5 -5
-8 -8 -8 -8 -8 -8 -8 -8 -8 -8 -8 -7 -7 -7 -7 -7 -7 -7 -6 -6 -6 -6 -6 -6 -6 -6 -6 -6 -6 -6 -6 -6 -6 -6 -6 -5 -5 -5 -5 -5 -5 -5 -5 -5 -5 -5 -5 -6 -6 -6 -6 -7 -7 -8 -7 -7 -6 -5 -4 -4 -4 -4 -4 -4 -4 -4 -4 -5 -5 -4 -4 -3 -4 -4
-8 -8 -8 -8 -8 -8 -8 -8 -8 -8 -8 -8 -7 -7 -7 -7 -7 -7 -7 -7 -7 -7 -7 -7 -7 -7 -7 -7 -7 -7 -7 -7 -7 -6 -6 -6 -6 -5 -5 -5 -5 -5 -5 -5 -5 -6 -6 -6 -6 -6 -6 -7 -7 -8 -8 -8 -7 -6 -5 -5 -5 -4 -4 -4 -4 -4 -4 -4 -4 -4 -4 -4 -4 -4
-8 -8 -8 -8 -8 -8 -8 -8 -8 -8 -8 -8 -8 -7 -7 -7 -7 -7 -7 -7 -7 -7 -7 -7 -7 -7 -7 -7 -7 -7 -7 -7 -6 -6 -6 -6 -6 -6 -6 -6 -6 -6 -6 -6 -6 -6 -6 -6 -7 -7 -7 -7 -7 -7 -7 -7 -7 -7 -6 -6 -6 -5 -5 -5 -4 -4 -4 -4 -4 -4 -4 -4 -4 -4
-8 -8 -8 -8 -8 -8 -8 -8 -8 -8 -8 -8 -8 -8 -7 -7 -7 -7 -7 -7 -7 -7 -7 -7 -7 -7 -7 -7 -7 -7 -7 -7 -7 -7 -7 -7 -7 -7 -7 -7 -6 -6 -6 -6 -6 -6 -6 -7 -7 -7 -7 -7 -7 -7 -7 -7 -7 -7 -6 -6 -6 -6 -6 -6 -5 -5 -5 -5 -5 -4 -4 -4 -4 -4
-8 -8 -8 -8 -8 -8 -8 -8 -8 -8 -9 -9 -8 -8 -8 -7 -8 -7 -7 -7 -7 -7 -7 -7 -7 -7 -7 -7 -6 -6 -7 -7 -8 -8 -8 -7 -7 -7 -7 -7 -7 -6 -6 -6 -6 -6 -7 -7 -7 -7 -7 -7 -7 -7 -7 -7 -7 -7 -7 -7 -7 -7 -7 -7 -6 -6 -6 -5 -5 -5 -5 -5 -5 -5
-8 -8 -8 -8 -8 -8 -8 -8 -8 -8 -9 -9 -9 -8 -8 -8 -8 -8 -7 -7 -7 -7 -7 -7 -7 -7 -7 -7 -7 -7 -7 -7 -8 -8 -8 -8 -8 -8 -8 -7 -7 -6 -6 -7 -7 -7 -7 -7 -7 -7 -7 -7 -7 -7 -8 -8 -8 -8 -8 -8 -7 -7 -7 -7 -7 -7 -6 -6 -6 -6 -6 -6 -6 -6
-8 -8 -8 -8 -8 -8 -8 -8 -8 -8 -9 -9 -9 -8 -8 -8 -8 -8 -8 -8 -7 -7 -7 -7 -7 -7 -7 -7 -7 -7 -7 -8 -8 -8 -8 -8 -8 -8 -8 -8 -7 -7 -7 -8 -8 -7 -7 -8 -8 -7 -7 -8 -8 -8 -8 -8 -8 -8 -8 -8 -8 -8 -8 -8 -8 -8 -7 -7 -7 -7 -7 -7 -7 -7
-8 -8 -8 -8 -8 -8 -8 -8 -8 -8 -8 -9 -9 -9 -8 -8 -8 -8 -8 -8 -8 -8 -8 -7 -7 -7 -7 -7 -7 -7 -8 -8 -8 -8 -8 -8 -8 -9 -8 -8 -9 -9 -8 -8 -9 -8 -8 -8 -8 -8 -8 -8 -8 -8 -8 -8 -9 -9 -9 -9 -9 -9 -9 -9 -9 -9 -8 -8 -8 -8 -8 -7 -7 -7
-8 -8 -8 -8 -8 -8 -8 -8 -8 -8 -8 -9 -9 -9 -9 -8 -8 -8 -8 -8 -8 -8 -8 -8 -7 -7 -7 -7 -7 -8 -8 -8 -9 -9 -9 -9 -9 -9 -9 -9 -9 -10 -9 -9 -10 -9 -9 -9 -9 -9 -9 -9 -9 -9 -9 -9 -9 -10 -10 -10 -10 -10 -10 -9 -9 -9 -9 -9 -8 -8 -8 -8 -8 -8
-8 -8 -8 -8 -8 -8 -7 -7 -8 -8 -8 -9 -9 -9 -9 -9 -8 -8 -8 -8 -8 -8 -8 -8 -8 -8 -8 -8 -8 -8 -8 -8 -9 -9 -9 -9 -9 -9 -10 -10 -10 -10 -10 -10 -10 -10 -10 -10 -10 -10 -10 -10 -10 -10 -10 -10 -10 -10 -10 -11 -11 -10 -10 -10 -10 -9 -9 -9 -9 -9 -8 -8 -8 -8
-9 -8 -8 -8 -8 -8 -8 -7 -8 -8 -8 -8 -9 -9 -9 -9 -9 -8 -8 -9 -9 -9 -9 -8 -8 -8 -8 -8 -8 -8 -8 -8 -9 -9 -9 -9 -9 -10 -10 -11 -10 -10 -11 -11 -11 -11 -10 -10 -10 -10 -11 -11 -10 -10 -11 -11 -11 -11 -11 -11 -11 -11 -10 -10 -10 -10 -9 -9 -9 -9 -9 -9 -9 -9
-9 -9 -9 -9 -8 -8 -8 -8 -8 -8 -8 -8 -8 -9 -9 -9 -9 -9 -9 -9 -9 -9 -9 -8 -8 -8 -8 -8 -8 -8 -9 -9 -9 -9 -9 -9 -9 -10 -10 -11 -11 -11 -11 -11 -11 -11 -11 -11 -11 -11 -11 -11 -11 -11 -11 -11 -11 -11 -11 -11 -11 -11 -11 -10 -10 -10 -9 -9 -9 -9 -9 -9 -9 -8
-9 -10 -10 -9 -9 -8 -8 -8 -8 -8 -8 -8 -8 -8 -8 -8 -8 -8 -8 -8 -8 -8 -8 -8 -8 -8 -8 -8 -9 -9 -9 -9 -9 -8 -9 -9 -9 -10 -10 -11 -11 -11 -11 -11 -11 -11 -11 -11 -11 -12 -12 -12 -12 -12 -12 -12 -12 -11 -11 -11 -11 -11 -11 -10 -10 -10 -10 -9 -9 -9 -9 -9 -9 -8
-9 -9 -10 -10 -9 -9 -8 -8 -8 -8 -8 -8 -8 -8 -8 -8 -8 -8 -8 -8 -8 -8 -8 -8 -8 -8 -9 -9 -9 -9 -9 -9 -9 -9 -9 -9 -9 -10 -10 -11 -11 -11 -11 -11 -11 -11 -11 -11 -12 -12 -12 -12 -12 -12 -12 -12 -12 -11 -11 -11 -11 -11 -11 -11 -11 -11 -10 -10 -10 -10 -9 -9 -9 -9
-9 -9 -9 -9 -9 -9 -8 -8 -8 -8 -7 -8 -8 -8 -8 -7 -7 -7 -8 -8 -8 -8 -8 -8 -8 -8 -9 -9 -9 -9 -9 -9 -9 -9 -9 -9 -10 -10 -10 -10 -11 -11 -11 -11 -11 -11 -12 -12 -12 -12 -12 -12 -13 -13 -12 -12 -12 -12 -12 -11 -11 -11 -11 -11 -11 -11 -11 -11 -10 -10 -10 -10 -9 -9
-9 -8 -9 -9 -9 -9 -9 -8 -8 -7 -7 -8 -8 -8 -8 -7 -7 -8 -8 -8 -8 -8 -8 -8 -8 -8 -9 -9 -9 -9 -9 -9 -9 -9 -9 -10 -10 -10 -10 -10 -10 -11 -11 -11 -11 -12 -12 -12 -12 -12 -13 -13 -13 -13 -13 -13 -12 -12 -12 -12 -12 -12 -11 -11 -11 -11 -11 -11 -11 -10 -10 -10 -10 -10
-9 -9 -9 -9 -9 -9 -9 -8 -8 -7 -7 -7 -8 -8 -8 -8 -8 -8 -8 -8 -8 -8 -8 -8 -8 -8 -9 -9 -9 -9 -9 -9 -9 -10 -10 -10 -10 -10 -10 -10 -11 -11 -11 -12 -12 -12 -13 -13 -13 -13 -13 -13 -13 -13 -13 -13 -13 -12 -12 -12 -12 -12 -12 -12 -11 -11 -11 -11 -11 -10 -10 -10 -10 -10
-9 -9 -9 -10 -10 -10 -10 -9 -8 -7 -7 -7 -7 -7 -7 -8 -8 -8 -8 -8 -8 -8 -8 -8 -8 -8 -9 -9 -9 -9 -9 -9 -9 -10 -10 -10 -10 -11 -11 -11 -11 -12 -12 -12 -13 -13 -13 -13 -13 -13 -13 -14 -14 -14 -13 -13 -12 -12 -12 -12 -12 -12 -12 -12 -11 -11 -11 -11 -10 -10 -10 -10 -10 -10
-9 -9 -10 -10 -10 -10 -10 -10 -9 -8 -8 -8 -7 -7 -7 -8 -8 -8 -8 -8 -8 -8 -8 -8 -9 -9 -9 -9 -9 -9 -9 -9 -10 -10 -11 -11 -11 -11 -12 -12 -12 -13 -13 -13 -13 -13 -13 -13 -14 -14 -14 -14 -14 -14 -13 -13 -13 -12 -12 -12 -12 -12 -12 -12 -12 -12 -11 -11 -11 -10 -10 -10 -10 -10
-10 -10 -10 -10 -10 -10 -10 -10 -9 -8 -8 -8 -7 -7 -8 -8 -8 -8 -8 -8 -8 -8 -8 -9 -9 -9 -9 -9 -9 -9 -10 -10 -10 -11 -11 -11 -12 -12 -12 -13 -13 -13 -13 -13 -14 -14 -14 -14 -14 -14 -14 -14 -14 -14 -13 -13 -13 -13 -13 -13 -12 -12 -12 -12 -12 -12 -12 -11 -11 -11 -10 -10 -10 -10
-9 -9 -9 -9 -9 -9 -10 -10 -9 -8 -8 -8 -8 -8 -8 -8 -8 -8 -8 -8 -8 -8 -8 -9 -9 -9 -10 -10 -10 -10 -10 -11 -11 -11 -12 -12 -12 -13 -13 -13 -14 -14 -14 -14 -14 -14 -15 -14 -14 -14 -14 -14 -14 -14 -14 -14 -13 -13 -13 -13 -13 -13 -12 -12 -12 -12 -12 -12 -12 -11 -11 -11 -11 -11
-9 -9 -9 -9 -9 -9 -9 -9 -9 -8 -8 -8 -8 -8 -8 -8 -8 -8 -8 -8 -9 -9 -9 -9 -10 -10 -10 -10 -11 -11 -11 -11 -12 -12 -12 -12 -13 -13 -13 -14 -14 -14 -14 -14 -15 -15 -15 -15 -14 -14 -14 -14 -14 -14 -14 -14 -13 -13 -13 -13 -13 -13 -13 -13 -13 -13 -13 -13 -12 -12 -12 -12 -12 -11
-9 -9 -9 -9 -8 -8 -8 -8 -8 -8 -8 -8 -8 -8 -8 -8 -8 -8 -9 -9 -10 -10 -10 -10 -10 -10 -11 -11 -11 -11 -12 -12 -12 -12 -13 -13 -13 -14 -14 -14 -14 -15 -14 -14 -15 -15 -15 -14 -14 -14 -14 -14 -14 -15 -14 -14 -13 -13 -13 -14 -14 -13 -13 -13 -13 -13 -13 -13 -13 -12 -12 -12 -12 -12
-10 -9 -9 -9 -9 -8 -8 -8 -8 -8 -8 -8 -9 -9 -9 -9 -9 -9 -10 -10 -10 -10 -10 -11 -11 -11 -11 -11 -12 -12 -12 -12 -13 -13 -13 -13 -14 -14 -14 -14 -15 -15 -15 -15 -15 -15 -15 -14 -14 -14 -15 -15 -15 -15 -15 -14 -14 -14 -14 -14 -14 -13 -13 -14 -14 -14 -14 -14 -13 -13 -12 -12 -12 -12
-10 -10 -10 -9 -9 -9 -9 -9 -9 -9 -9 -9 -9 -9 -10 -10 -10 -10 -10 -10 -10 -10 -11 -12 -12 -12 -12 -12 -12 -12 -12 -13 -13 -13 -14 -14 -14 -14 -14 -14 -14 -14 -15 -15 -15 -15 -15 -15 -15 -15 -15 -15 -15 -15 -15 -14 -14 -14 -14 -14 -14 -14 -14 -14 -14 -14 -14 -14 -14 -14 -13 -12 -12 -12
-11 -11 -11 -10 -10 -10 -10 -10 -10 -10 -10 -10 -10 -10 -10 -11 -11 -11 -11 -11 -11 -12 -12 -12 -12 -12 -12 -12 -12 -13 -13 -13 -13 -14 -14 -14 -14 -15 -15 -15 -15 -15 -15 -15 -15 -15 -15 -15 -15 -16 -16 -16 -15 -15 -14 -14 -14 -14 -14 -14 -14 -14 -14 -14 -14 -14 -14 -14 -14 -14 -14 -13 -12 -12
-11 -11 -11 -11 -11 -11 -11 -11 -10 -10 -10 -10 -11 -11 -11 -11 -11 -11 -11 -12 -12 -13 -13 -13 -13 -13 -13 -13 -13 -13 -13 -13 -14 -14 -14 -14 -15 -15 -15 -15 -15 -15 -15 -15 -15 -15 -15 -16 -16 -16 -16 -16 -15 -15 -14 -14 -15 -15 -15 -15 -14 -15 -15 -15 -14 -14 -14 -14 -14 -14 -14 -14 -13 -13
-12 -12 -12 -12 -12 -12 -11 -11 -11 -11 -11 -11 -11 -11 -12 -12 -12 -12 -12 -12 -13 -13 -13 -13 -13 -13 -13 -13 -13 -13 -14 -14 -14 -14 -14 -15 -15 -14 -15 -15 -15 -15 -15 -16 -16 -16 -16 -16 -16 -16 -16 -15 -15 -15 -14 -15 -15 -15 -15 -15 -15 -15 -15 -15 -15 -14 -14 -14 -14 -14 -15 -14 -14 -13
-12 -12 -12 -12 -12 -12 -12 -12 -12 -12 -12 -12 -12 -12 -12 -12 -13 -13 -13 -13 -13 -14 -14 -14 -14 -14 -14 -14 -14 -14 -14 -14 -14 -15 -15 -14 -14 -14 -14 -15 -15 -15 -15 -16 -16 -16 -16 -16 -16 -16 -15 -15 -15 -15 -15 -15 -14 -14 -15 -15 -15 -16 -16 -16 -16 -16 -15 -15 -15 -15 -15 -15 -14 -14
-12 -12 -13 -13 -13 -13 -13 -13 -12 -12 -12 -12 -13 -13 -13 -13 -13 -13 -13 -13 -13 -14 -14 -14 -14 -14 -14 -14 -14 -14 -14 -14 -15 -14 -14 -14 -14 -14 -15 -15 -15 -15 -16 -16 -16 -16 -16 -15 -16 -16 -16 -16 -16 -16 -16 -15 -15 -14 -15 -15 -16 -17 -17 -17 -17 -17 -16 -16 -16 -16 -15 -15 -15 -15
-12 -12 -13 -13 -13 -13 -13 -13 -13 -13 -13 -13 -13 -13 -13 -13 -13 -13 -14 -14 -14 -14 -14 -14 -14 -14 -15 -15 -15 -15 -15 -15 -14 -14 -14 -14 -14 -15 -15 -15 -15 -16 -16 -16 -16 -15 -15 -16 -16 -16 -16 -16 -16 -16 -16 -16 -15 -14 -14 -15 -16 -17 -17 -17 -17 -17 -17 -17 -17 -17 -16 -16 -16 -15
-12 -12 -13 -13 -13 -13 -13 -13 -13 -13 -13 -13 -13 -14 -14 -13 -13 -14 -14 -14 -14 -14 -14 -14 -14 -14 -15 -15 -15 -14 -14 -14 -14 -14 -14 -14 -15 -15 -15 -15 -15 -15 -15 -15 -15 -15 -16 -16 -16 -16 -16 -16 -17 -17 -17 -16 -16 -15 -15 -15 -15 -16 -17 -17 -18 -18 -18 -18 -18 -17 -17 -17 -17 -16
-12 -13 -13 -13 -13 -13 -13 -14 -14 -14 -14 -14 -14 -14 -14 -14 -14 -14 -14 -14 -14 -14 -14 -14 -14 -14 -14 -14 -14 -14 -14 -14 -14 -14 -14 -14 -15 -15 -15 -15 -15 -15 -15 -15 -15 -16 -16 -16 -16 -17 -17 -17 -17 -17 -17 -16 -16 -16 -16 -15 -15 -16 -16 -17 -17 -18 -18 -18 -18 -18 -18 -18 -18 -18
-12 -13 -13 -13 -13 -13 -13 -14 -14 -14 -14 -14 -14 -14 -15 -15 -14 -14 -14 -14 -14 -14 -14 -14 -14 -14 -14 -14 -14 -14 -14 -14 -14 -14 -14 -15 -15 -15 -15 -15 -15 -15 -15 -15 -16 -16 -16 -16 -17 -17 -17 -17 -17 -17 -17 -17 -17 -17 -17 -17 -17 -16 -16 -17 -17 -17 -18 -18 -18 -18 -18 -18 -19 -18
-13 -13 -13 -13 -13 -13 -13 -14 -14 -14 -14 -14 -14 -15 -15 -15 -15 -14 -14 -14 -14 -14 -14 -14 -13 -14 -14 -14 -14 -14 -14 -14 -14 -14 -15 -15 -15 -15 -15 -15 -15 -15 -15 -16 -16 -16 -16 -17 -17 -17 -17 -17 -18 -18 -18 -18 -18 -18 -18 -18 -17 -17 -17 -17 -17 -17 -17 -17 -17 -17 -17 -18 -18 -19
Height
1384 1386 1387 1388 1390 1391 1393 1394 1396 1398 1399 1401 1403 1405 1407 1409 1410 1411 1411 1410 1411 1413 1416 1417 1419 1422 1424 1426 1428 1429 1431 1433 1436 1438 1440 1442 1444 1446 1448 1450 1452 1454 1457 1459 1461 1463 1465 1468 1470 1472 1475 1477 1480 1482 1484 1486 1489 1491 1493 1495 1496 1497 1498 1500 1501 1503 1504 1505 1506 1507 1508 1510 1510 1511
1381 1382 1384 1385 1387 1388 1390 1391 1393 1395 1396 1398 1400 1402 1404 1405 1407 1408 1408 1407 1407 1410 1412 1414 1416 1418 1421 1423 1425 1426 1428 1430 1433 1435 1436 1438 1440 1443 1445 1447 1449 1451 1453 1456 1458 1459 1461 1463 1465 1468 1470 1473 1475 1477 1480 1482 1484 1486 1488 1491 1492 1494 1494 1495 1497 1498 1500 1501 1501 1502 1504 1505 1505 1507
1377 1379 1380 1382 1383 1385 1386 1387 1389 1391 1393 1394 1396 1398 1400 1402 1403 1405 1406 1404 1403 1406 1408 1410 1413 1415 1418 1420 1422 1423 1425 1427 1429 1431 1432 1434 1436 1439 1441 1443 1445 1447 1449 1452 1454 1456 1458 1459 1461 1464 1466 1469 1471 1473 1475 1477 1479 1482 1484 1486 1488 1490 1491 1492 1493 1494 1495 1496 1497 1498 1500 1500 1501 1503
1374 1375 1376 1377 1379 1381 1382 1383 1385 1386 1389 1391 1393 1395 1397 1399 1400 1402 1403 1401 1400 1402 1405 1407 1410 1412 1415 1417 1418 1419 1421 1423 1424 1426 1428 1430 1432 1434 1437 1439 1441 1443 1446 1448 1451 1453 1455 1456 1458 1460 1463 1464 1466 1468 1470 1472 1474 1477 1479 1481 1483 1485 1487 1488 1489 1490 1490 1491 1492 1493 1495 1496 1496 1498
1370 1371 1372 1373 1375 1377 1378 1379 1381 1383 1385 1387 1388 1391 1393 1395 1397 1398 1399 1399 1398 1399 1401 1404 1406 1409 1411 1413 1414 1416 1417 1418 1420 1422 1423 1425 1427 1430 1432 1435 1437 1439 1442 1444 1447 1449 1451 1453 1455 1457 1459 1461 1462 1464 1466 1468 1470 1472 1474 1476 1478 1480 1482 1483 1484 1485 1486 1487 1488 1489 1491 1492 1493 1494
1366 1367 1368 1369 1371 1373 1374 1375 1377 1379 1381 1383 1384 1386 1388 1390 1392 1394 1396 1396 1395 1396 1398 1400 1402 1404 1407 1408 1410 1412 1413 1414 1416 1418 1420 1421 1423 1426 1429 1431 1433 1435 1438 1440 1443 1445 1447 1449 1451 1453 1455 1457 1458 1460 1461 1463 1465 1467 1469 1471 1473 1475 1477 1479 1481 1482 1483 1484 1485 1486 1488 1489 1490 1491
1362 1363 1364 1365 1367 1369 1371 1372 1374 1375 1377 1379 1381 1382 1384 1385 1388 1390 1392 1393 1392 1393 1394 1396 1397 1400 1402 1404 1406 1409 1410 1412 1413 1414 1416 1418 1420 1422 1425 1427 1429 1431 1434 1436 1439 1441 1443 1445 1447 1449 1451 1453 1455 1456 1458 1459 1461 1463 1465 1466 1468 1470 1472 1475 1476 1478 1479 1480 1481 1482 1484 1485 1486 1487
1358 1359 1360 1362 1364 1366 1367 1368 1370 1372 1374 1376 1377 1378 1380 1381 1383 1386 1388 1389 1389 1390 1391 1392 1393 1395 1398 1400 1403 1405 1407 1409 1410 1411 1412 1414 1415 1418 1421 1423 1425 1427 1430 1432 1434 1437 1439 1441 1443 1445 1447 1448 1450 1452 1454 1455 1457 1459 1460 1461 1463 1465 1467 1469 1471 1472 1473 1475 1476 1477 1479 1480 1482 1483
1354 1355 1356 1358 1360 1362 1363 1364 1366 1368 1370 1372 1373 1375 1376 1377 1379 1381 1383 1385 1386 1387 1387 1388 1389 1391 1394 1396 1399 1401 1403 1405 1406 1408 1409 1410 1411 1414 1416 1419 1421 1423 1426 1428 1430 1432 1434 1436 1438 1440 1443 1445 1446 1448 1450 1451 1453 1454 1456 1457 1458 1460 1462 1464 1465 1467 1468 1469 1471 1472 1473 1474 1476 1477
1350 1351 1352 1354 1356 1358 1359 1360 1362 1364 1366 1367 1369 1371 1372 1374 1375 1377 1379 1381 1383 1383 1384 1385 1386 1387 1390 1392 1394 1397 1399 1401 1403 1404 1406 1407 1408 1409 1411 1413 1416 1419 1421 1423 1426 1428 1430 1432 1434 1436 1438 1441 1443 1445 1447 1448 1449 1450 1451 1453 1454 1455 1457 1459 1460 1462 1463 1464 1465 1466 1467 1468 1469 1471
1346 1347 1349 1350 1352 1354 1355 1356 1358 1359 1361 1363 1365 1366 1368 1370 1372 1373 1375 1377 1379 1380 1381 1382 1382 1384 1386 1388 1390 1393 1396 1398 1399 1401 1402 1403 1404 1405 1406 1408 1411 1414 1417 1419 1422 1424 1426 1428 1430 1432 1434 1436 1439 1442 1443 1444 1445 1446 1447 1449 1450 1452 1453 1455 1456 1457 1458 1459 1459 1460 1461 1462 1463 1465
1342 1343 1345 1346 1348 1349 1351 1352 1354 1355 1356 1358 1360 1362 1364 1366 1368 1369 1371 1373 1375 1376 1378 1378 1379 1380 1382 1384 1386 1389 1391 1393 1395 1397 1398 1399 1400 1401 1403 1405 1407 1410 1413 1415 1417 1420 1422 1423 1425 1427 1429 1431 1434 1436 1438 1440 1441 1442 1443 1445 1447 1448 1449 1451 1452 1453 1454 1454 1454 1455 1456 1457 1458 1459
1339 1340 1341 1342 1343 1345 1346 1348 1349 1351 1352 1353 1355 1357 1359 1361 1363 1365 1366 1368 1370 1372 1374 1375 1376 1377 1378 1380 1381 1383 1385 1387 1390 1393 1394 1396 1397 1398 1400 1401 1403 1406 1408 1411 1413 1415 1417 1419 1420 1422 1424 1426 1429 1431 1433 1434 1436 1437 1439 1441 1442 1444 1445 1447 1448 1449 1449 1450 1450 1450 1451 1452 1453 1454
1334 1336 1337 1338 1339 1340 1342 1343 1345 1346 1348 1349 1350 1352 1355 1357 1359 1360 1362 1363 1365 1367 1369 1371 1372 1373 1374 1376 1377 1378 1380 1383 1386 1388 1390 1392 1394 1395 1396 1397 1399 1401 1404 1406 1408 1410 1413 1414 1416 1417 1419 1421 1424 1426 1428 1430 1432 1434 1436 1437 1438 1439 1441 1442 1443 1444 1444 1445 1445 1446 1446 1447 1448 1449
1330 1331 1332 1333 1335 1336 1337 1339 1340 1342 1343 1345 1346 1348 1350 1352 1354 1356 1358 1359 1361 1363 1364 1366 1368 1369 1370 1372 1374 1375 1377 1380 1382 1384 1386 1388 1390 1391 1392 1393 1395 1397 1399 1402 1404 1406 1409 1411 1412 1413 1415 1417 1420 1422 1425 1427 1429 1430 1432 1434 1435 1435 1436 1437 1438 1439 1440 1440 1440 1441 1442 1442 1443 1444
1325 1326 1327 1329 1330 1331 1333 1334 1336 1337 1339 1341 1342 1344 1346 1348 1350 1352 1354 1355 1357 1359 1360 1362 1364 1365 1366 1368 1370 1372 1374 1376 1379 1381 1383 1384 1386 1387 1388 1389 1391 1393 1395 1398 1400 1402 1404 1407 1408 1409 1411 1413 1416 1418 1421 1423 1425 1426 1428 1429 1430 1431 1431 1432 1433 1434 1435 1435 1436 1436 1437 1438 1439 1439
1321 1322 1323 1324 1325 1326 1328 1330 1331 1333 1334 1336 1338 1340 1342 1344 1345 1347 1349 1351 1353 1355 1357 1358 1359 1361 1363 1365 1366 1369 1372 1374 1376 1378 1379 1381 1382 1383 1384 1385 1388 1390 1392 1395 1397 1398 1400 1402 1404 1405 1407 1409 1412 1414 1416 1418 1420 1421 1423 1424 1425 1426 1427 1428 1429 1429 1430 1431 1431 1432 1432 1433 1434 1434
1316 1317 1318 1319 1320 1321 1323 1325 1326 1328 1330 1332 1334 1336 1338 1339 1341 1342 1344 1346 1349 1351 1352 1353 1354 1357 1359 1361 1363 1366 1369 1371 1372 1374 1375 1377 1379 1380 1382 1383 1385 1387 1389 1392 1394 1394 1396 1398 1400 1401 1403 1405 1407 1409 1411 1413 1415 1417 1418 1420 1421 1422 1423 1424 1424 1425 1425 1426 1427 1427 1428 1428 1429 1430
1311 1312 1313 1314 1315 1316 1317 1319 1321 1323 1326 1328 1330 1331 1333 1334 1336 1338 1339 1341 1344 1346 1347 1349 1351 1353 1356 1358 1361 1363 1366 1367 1369 1371 1373 1375 1377 1379 1380 1381 1382 1383 1385 1388 1390 1391 1392 1394 1396 1398 1400 1402 1403 1405 1406 1408 1410 1412 1414 1415 1416 1417 1418 1419 1419 1420 1420 1421 1422 1423 1424 1424 1424 1425
1306 1307 1307 1308 1309 1311 1312 1314 1317 1319 1321 1323 1325 1327 1328 1330 1332 1333 1335 1338 1341 1342 1344 1345 1348 1350 1353 1355 1358 1360 1362 1364 1366 1368 1370 1372 1373 1375 1376 1377 1378 1379 1381 1383 1386 1387 1389 1390 1392 1395 1397 1398 1399 1401 1402 1403 1405 1407 1409 1410 1412 1413 1414 1414 1415 1415 1416 1417 1418 1418 1419 1419 1419 1420
1300 1301 1302 1303 1304 1306 1308 1310 1312 1315 1317 1319 1320 1322 1324 1326 1328 1329 1332 1335 1337 1339 1341 1342 1344 1347 1349 1352 1354 1356 1358 1360 1363 1364 1365 1366 1368 1370 1371 1372 1373 1375 1377 1379 1382 1384 1386 1387 1389 1391 1393 1394 1396 1397 1398 1400 1402 1403 1404 1406 1407 1408 1408 1409 1409 1410 1411 1412 1413 1413 1414 1414 1414 1414
1294 1294 1296 1298 1299 1300 1302 1305 1307 1310 1313 1314 1316 1318 1320 1322 1323 1325 1328 1331 1333 1335 1337 1339 1341 1343 1346 1348 1350 1353 1355 1357 1359 1359 1360 1362 1364 1366 1367 1369 1370 1372 1374 1376 1379 1381 1383 1384 1386 1388 1390 1391 1392 1393 1395 1396 1398 1399 1400 1401 1401 1402 1403 1404 1405 1406 1406 1406 1407 1407 1408 1409 1409 1409
1288 1288 1289 1291 1294 1295 1297 1300 1302 1305 1308 1310 1311 1314 1316 1318 1319 1322 1325 1327 1329 1331 1333 1335 1337 1339 1341 1344 1346 1348 1351 1353 1354 1355 1357 1359 1361 1362 1364 1366 1367 1368 1369 1372 1375 1377 1379 1381 1383 1385 1387 1388 1388 1390 1391 1393 1394 1395 1396 1396 1397 1398 1399 1400 1400 1401 1401 1401 1402 1403 1404 1405 1405 1405
1284 1284 1284 1285 1287 1289 1292 1295 1298 1300 1303 1305 1308 1310 1312 1313 1315 1319 1322 1323 1326 1328 1330 1331 1333 1335 1337 1340 1342 1344 1346 1348 1349 1351 1353 1355 1356 1359 1361 1362 1363 1364 1366 1368 1372 1374 1375 1377 1379 1381 1383 1385 1385 1386 1387 1388 1390 1391 1391 1392 1393 1394 1394 1395 1395 1395 1396 1396 1397 1399 1400 1401 1401 1401
1279 1279 1279 1280 1281 1284 1287 1290 1293 1296 1299 1301 1304 1306 1307 1309 1313 1316 1318 1320 1323 1325 1326 1328 1330 1332 1334 1337 1338 1340 1342 1343 1345 1347 1350 1351 1353 1356 1357 1359 1360 1362 1363 1366 1369 1370 1372 1374 1376 1378 1380 1381 1381 1382 1384 1385 1385 1386 1387 1387 1388 1389 1389 1390 1390 1391 1391 1392 1393 1394 1395 1396 1397 1396
1275 1274 1275 1276 1278 1279 1282 1286 1289 1292 1295 1297 1300 1302 1304 1307 1311 1313 1315 1317 1319 1321 1323 1325 1326 1328 1330 1332 1334 1336 1338 1340 1341 1344 1346 1349 1351 1353 1355 1356 1357 1359 1361 1363 1365 1367 1369 1371 1373 1375 1376 1377 1378 1379 1381 1382 1382 1383 1383 1383 1384 1384 1385 1385 1386 1386 1387 1388 1389 1390 1391 1391 1392 1392
1270 1270 1272 1273 1274 1276 1279 1282 1285 1289 1291 1294 1296 1299 1302 1305 1308 1310 1312 1313 1315 1317 1319 1321 1322 1324 1326 1328 1330 1332 1334 1336 1338 1340 1343 1346 1348 1349 1351 1353 1354 1356 1359 1361 1362 1364 1366 1368 1369 1371 1372 1373 1374 1376 1377 1378 1379 1380 1380 1380 1380 1380 1380 1381 1381 1382 1383 1384 1385 1385 1385 1386 1386 1387
1267 1268 1270 1271 1272 1273 1275 1278 1282 1285 1288 1291 1293 1297 1300 1302 1304 1307 1308 1310 1312 1313 1315 1317 1318 1320 1322 1323 1325 1328 1331 1333 1335 1337 1340 1342 1344 1346 1348 1349 1352 1354 1356 1358 1360 1362 1364 1365 1366 1368 1369 1370 1371 1372 1373 1375 1376 1376 1376 1376 1376 1376 1377 1377 1377 1378 1379 1380 1380 1380 1381 1381 1382 1382
1268 1268 1269 1270 1271 1272 1273 1276 1279 1282 1286 1289 1292 1294 1297 1299 1301 1303 1305 1307 1308 1310 1312 1313 1315 1317 1318 1320 1322 1325 1327 1329 1332 1334 1336 1339 1341 1343 1345 1347 1349 1351 1353 1355 1357 1359 1361 1362 1363 1364 1365 1366 1367 1369 1370 1371 1372 1372 1373 1372 1373 1373 1373 1373 1373 1374 1375 1375 1375 1376 1376 1376 1377 1378
1268 1268 1269 1269 1270 1271 1272 1274 1277 1280 1284 1288 1290 1292 1294 1296 1298 1300 1302 1304 1305 1307 1309 1310 1312 1314 1315 1317 1319 1322 1324 1326 1329 1331 1334 1336 1339 1341 1343 1345 1347 1349 1350 1352 1354 1356 1357 1359 1360 1361 1362 1363 1364 1366 1367 1367 1368 1368 1369 1369 1369 1369 1369 1369 1369 1369 1370 1370 1370 1370 1371 1372 1373 1373
1268 1268 1268 1269 1269 1270 1271 1273 1277 1280 1283 1286 1288 1290 1292 1294 1296 1298 1299 1301 1303 1304 1306 1308 1309 1311 1313 1315 1317 1319 1322 1324 1327 1330 1332 1335 1337 1339 1341 1343 1344 1346 1348 1350 1351 1353 1355 1356 1357 1358 1360 1361 1362 1363 1364 1363 1363 1364 1365 1365 1365 1365 1365 1365 1365 1365 1365 1365 1365 1365 1367 1368 1368 1369
1269 1269 1269 1269 1269 1270 1272 1274 1276 1279 1282 1284 1286 1288 1290 1293 1294 1296 1297 1299 1301 1302 1304 1306 1307 1309 1311 1313 1315 1318 1320 1323 1325 1328 1330 1333 1335 1337 1339 1340 1342 1344 1345 1347 1349 1350 1352 1353 1355 1356 1357 1358 1359 1359 1360 1360 1360 1361 1361 1361 1361 1361 1361 1361 1362 1362 1361 1360 1360 1361 1362 1363 1364 1364
1271 1270 1270 1271 1271 1272 1274 1275 1277 1280 1282 1284 1286 1288 1290 1291 1293 1294 1296 1298 1299 1301 1302 1304 1306 1308 1309 1312 1314 1316 1319 1321 1324 1326 1328 1331 1333 1335 1337 1338 1340 1341 1343 1345 1346 1348 1349 1350 1351 1352 1353 1354 1355 1355 1356 1356 1357 1357 1358 1358 1357 1357 1358 1358 1357 1357 1357 1356 1356 1356 1357 1357 1359 1360
1273 1272 1272 1273 1273 1274 1276 1277 1279 1281 1282 1284 1286 1287 1289 1291 1292 1294 1295 1297 1299 1300 1301 1303 1305 1306 1308 1310 1313 1315 1317 1320 1322 1325 1327 1329 1331 1333 1334 1336 1338 1339 1341 1343 1344 1345 1347 1348 1348 1349 1351 1351 1352 1352 1352 1353 1353 1354 1354 1354 1353 1354 1354 1354 1353 1353 1352 1352 1351 1351 1350 1351 1353 1355
1274 1274 1274 1275 1275 1276 1277 1278 1279 1281 1282 1284 1285 1287 1288 1291 1292 1294 1295 1297 1298 1299 1300 1302 1303 1305 1307 1309 1311 1314 1316 1318 1321 1323 1325 1327 1329 1331 1332 1334 1336 1337 1339 1340 1342 1343 1344 1345 1346 1347 1348 1349 1349 1349 1349 1350 1350 1350 1351 1350 1350 1350 1351 1351 1350 1349 1348 1347 1347 1345 1343 1344 1346 1349
1275 1276 1276 1276 1277 1278 1279 1280 1281 1282 1283 1284 1286 1287 1289 1291 1292 1294 1295 1296 1297 1298 1299 1301 1303 1305 1307 1309 1311 1313 1315 1317 1319 1321 1323 1325 1327 1329 1331 1332 1334 1336 1337 1338 1340 1341 1342 1343 1344 1345 1346 1346 1346 1346 1346 1347 1347 1347 1347 1347 1347 1347 1347 1346 1345 1345 1344 1344 1342 1340 1338 1337 1338 1341
1277 1277 1277 1278 1279 1279 1280 1281 1282 1283 1284 1286 1287 1288 1290 1291 1293 1294 1295 1295 1296 1297 1299 1301 1302 1304 1306 1308 1310 1312 1314 1316 1318 1320 1322 1324 1325 1327 1329 1330 1332 1334 1335 1336 1337 1338 1339 1340 1341 1342 1343 1343 1343 1342 1343 1344 1344 1344 1344 1344 1344 1344 1343 1342 1340 1340 1340 1339 1338 1336 1334 1331 1331 1334
1278 1278 1279 1279 1280 1281 1281 1282 1283 1284 1286 1287 1288 1290 1291 1292 1293 1294 1294 1295 1296 1297 1298 1300 1302 1304 1306 1307 1309 1311 1313 1315 1317 1319 1320 1322 1324 1325 1327 1329 1330 1332 1333 1334 1335 1336 1337 1338 1339 1339 1340 1340 1339 1339 1340 1340 1340 1341 1341 1341 1340 1340 1339 1338 1336 1336 1336 1335 1333 1332 1330 1327 1325 1327
1279 1280 1280 1281 1281 1282 1282 1283 1284 1285 1287 1288 1289 1291 1292 1292 1293 1293 1294 1294 1295 1297 1298 1300 1301 1303 1305 1307 1309 1311 1312 1314 1315 1317 1319 1320 1322 1324 1326 1327 1329 1330 1332 1332 1333 1334 1335 1336 1336 1337 1337 1337 1337 1337 1336 1336 1336 1337 1337 1337 1336 1336 1335 1334 1333 1331 1331 1330 1329 1327 1325 1323 1322 1322
1281 1281 1281 1282 1282 1283 1283 1284 1285 1286 1288 1289 1290 1291 1292 1292 1293 1293 1294 1294 1295 1296 1298 1299 1301 1302 1304 1306 1308 1310 1311 1313 1314 1316 1317 1319 1321 1323 1324 1326 1327 1329 1330 1331 1331 1332 1332 1333 1334 1334 1334 1333 1333 1333 1333 1332 1332 1332 1333 1334 1333 1332 1331 1330 1329 1327 1325 1325 1324 1321 1319 1318 1317 1317
1282 1282 1283 1283 1283 1284 1284 1285 1286 1288 1289 1290 1291 1292 1292 1292 1293 1293 1294 1294 1295 1296 1297 1299 1300 1302 1303 1305 1307 1308 1310 1311 1313 1315 1316 1318 1320 1321 1323 1325 1326 1326 1327 1328 1329 1329 1330 1331 1331 1330 1330 1330 1330 1329 1329 1328 1327 1328 1329 1330 1329 1328 1327 1325 1324 1322 1320 1319 1318 1315 1313 1312 1311 1309
1284 1284 1284 1284 1284 1285 1286 1286 1287 1289 1290 1291 1291 1292 1292 1292 1293 1293 1293 1294 1295 1296 1297 1298 1300 1301 1303 1304 1306 1307 1309 1310 1312 1314 1315 1317 1318 1320 1321 1322 1323 1324 1324 1325 1327 1328 1328 1328 1327 1327 1327 1326 1326 1325 1324 1323 1323 1323 1324 1324 1324 1324 1323 1321 1320 1318 1316 1315 1314 1311 1309 1308 1306 1303
1285 1285 1285 1285 1286 1286 1286 1287 1288 1289 1290 1291 1292 1292 1292 1293 1293 1293 1293 1293 1294 1295 1296 1298 1299 1300 1302 1303 1305 1306 1308 1309 1311 1312 1314 1315 1316 1318 1319 1320 1321 1322 1322 1323 1324 1325 1325 1324 1324 1323 1323 1322 1322 1321 1319 1319 1319 1318 1318 1318 1318 1318 1318 1317 1316 1314 1312 1311 1310 1308 1306 1305 1303 1299
1287 1287 1286 1287 1287 1287 1287 1288 1289 1290 1290 1291 1292 1292 1292 1292 1292 1292 1293 1293 1294 1295 1296 1297 1298 1300 1301 1302 1304 1305 1307 1308 1310 1311 1312 1314 1315 1316 1317 1318 1319 1319 1320 1320 1321 1321 1321 1321 1320 1320 1319 1319 1318 1317 1316 1315 1315 1314 1313 1312 1312 1312 1312 1312 1310 1309 1307 1306 1305 1305 1303 1302 1299 1296
1288 1288 1287 1287 1288 1288 1288 1289 1289 1290 1290 1291 1291 1291 1292 1292 1292 1292 1292 1293 1294 1295 1296 1297 1298 1299 1300 1302 1303 1304 1305 1307 1308 1309 1311 1312 1313 1314 1315 1315 1316 1316 1316 1317 1317 1317 1318 1317 1317 1316 1315 1315 1314 1313 1312 1311 1310 1309 1308 1307 1306 1306 1306 1305 1304 1302 1300 1300 1300 1300 1299 1297 1295 1293
Wind_Speed
22 22 22 22 24 26 26 27 29 31 33 33 33 34 34 33 29 25 25 31 37 37 36 36 37 36 35 34 33 34 34 34 34 33 32 31 30 29 30 33 36 38 38 38 39 39 38 38 37 37 36 36 38 38 37 38 38 38 38 35 34 34 32 30 28 27 27 26 26 27 27 26 27 29
25 24 24 23 24 25 26 28 29 29 30 31 33 35 35 35 34 31 28 31 35 35 34 35 34 33 34 33 33 32 32 32 32 33 33 32 31 30 30 31 34 36 37 38 38 38 38 39 38 37 36 35 36 36 36 37 38 40 41 40 39 39 38 36 34 32 31 32 32 32 32 30 30 33
26 27 26 26 27 27 27 28 30 31 31 31 32 34 36 36 36 36 33 32 34 34 33 33 32 31 30 31 32 33 33 33 33 34 34 34 34 32 32 32 33 35 36 37 38 35 35 38 38 38 37 35 35 35 35 36 37 40 42 43 43 43 42 40 39 36 34 33 32 30 31 31 31 35
26 28 29 29 29 29 28 28 28 30 32 33 33 33 35 36 37 37 35 34 36 36 34 33 31 29 28 28 29 30 32 33 33 34 35 35 35 34 34 34 34 34 34 37 38 36 34 35 37 37 37 36 36 35 36 36 37 39 41 43 45 46 46 45 44 42 39 37 34 30 29 28 27 30
27 29 30 32 32 31 30 29 28 29 30 32 33 34 34 35 36 37 36 37 38 37 34 33 32 29 27 26 27 27 29 30 32 33 34 35 35 35 35 35 35 35 35 36 38 38 37 36 37 37 37 37 37 37 37 37 38 38 39 41 43 44 45 43 41 39 36 34 32 29 27 25 24 24
29 31 32 33 32 30 29 29 28 29 29 29 32 34 36 36 36 37 37 37 39 38 36 34 33 31 28 27 27 27 27 27 28 30 31 32 33 34 34 35 35 35 35 36 37 38 38 37 37 37 38 38 38 37 36 36 37 35 33 34 36 35 33 31 30 29 28 27 26 25 25 24 24 23
30 31 32 31 30 28 28 28 28 29 30 29 29 32 35 37 37 36 37 38 39 39 37 36 34 32 30 30 29 27 27 26 26 28 29 30 30 31 31 33 34 34 34 35 35 37 38 38 36 35 37 39 39 38 36 34 32 31 28 28 29 29 28 27 26 25 25 25 25 25 25 25 25 24
28 29 29 29 28 28 29 30 30 29 29 30 30 30 32 35 37 36 36 38 38 38 37 36 36 35 34 32 30 29 28 28 28 28 28 28 29 29 29 30 32 34 34 34 35 36 37 38 37 35 35 35 35 37 38 34 30 30 31 31 31 30 30 29 28 27 26 25 25 24 24 25 25 25
28 28 28 27 27 28 29 30 31 30 29 29 30 31 31 32 35 36 35 35 36 37 37 36 36 35 34 33 31 30 29 29 30 29 28 29 29 29 29 30 31 33 35 35 35 36 36 37 38 36 33 30 29 32 35 34 31 33 35 35 34 33 32 31 31 30 29 27 26 26 26 26 25 25
28 28 28 28 28 29 29 29 29 30 31 30 30 32 32 31 32 33 34 33 33 35 37 36 36 35 35 34 33 32 31 30 31 31 31 31 31 32 33 33 32 33 35 36 36 37 37 37 37 37 34 30 28 28 30 32 34 36 37 37 36 36 35 34 34 33 32 30 29 30 31 31 29 28
26 27 27 28 28 29 30 29 29 29 30 31 31 32 32 32 32 31 33 33 31 32 34 35 36 36 35 35 34 34 32 31 31 32 33 34 35 35 36 36 35 34 35 36 36 37 37 37 37 38 37 34 30 27 28 30 33 35 37 38 38 38 37 37 37 37 35 34 33 34 34 34 33 32
26 27 27 27 27 28 29 29 29 29 30 31 32 31 31 34 35 32 31 33 32 31 32 34 34 35 35 34 34 33 31 32 33 34 35 36 36 35 35 36 36 35 35 36 36 36 37 37 36 37 39 39 36 32 30 30 32 34 36 38 38 38 38 39 39 39 38 36 36 36 35 35 35 35
26 27 28 29 29 29 30 29 29 29 30 31 33 32 30 32 37 35 31 31 31 30 32 33 33 34 35 35 35 34 34 35 36 36 36 36 35 34 34 35 36 37 36 36 37 37 37 36 36 36 38 41 40 39 37 36 36 37 37 38 38 38 39 39 39 39 39 38 37 37 37 36 35 35
27 28 29 31 31 31 32 32 31 29 29 30 33 34 31 31 35 37 34 31 31 31 32 33 33 34 35 36 36 36 36 36 35 35 35 35 35 35 35 36 37 37 37 38 38 37 37 36 37 37 39 41 42 42 41 40 40 39 38 38 38 39 39 39 39 39 38 38 37 37 37 37 36 36
29 29 30 31 31 31 31 32 33 31 30 30 31 33 33 31 32 35 35 33 32 32 33 33 34 35 36 36 35 35 35 34 34 34 35 35 35 36 37 38 38 38 38 39 39 38 38 37 37 38 39 40 41 41 40 39 39 39 38 38 39 39 39 38 38 38 37 37 37 37 37 36 36 36
30 30 31 31 32 32 31 31 31 31 31 30 30 30 30 31 32 33 33 33 33 32 33 34 35 36 37 37 36 36 35 35 34 33 34 34 35 36 38 38 39 38 37 38 39 40 39 38 39 40 40 39 39 39 39 39 39 39 39 39 40 40 40 39 38 37 36 36 36 36 36 36 36 36
32 32 33 33 33 32 32 31 31 31 30 30 30 30 29 30 32 33 33 33 32 32 33 34 36 37 38 38 37 36 35 35 34 33 34 35 35 37 38 39 39 39 38 37 38 39 40 39 40 41 41 40 40 40 40 40 39 39 38 38 39 39 39 38 37 36 36 36 36 36 36 36 36 36
32 33 33 34 33 32 32 31 31 31 30 28 29 31 31 32 33 34 35 34 32 32 33 35 37 37 38 38 37 35 34 34 35 35 35 35 35 36 37 38 38 38 38 37 36 36 38 38 39 40 41 41 41 42 42 41 39 37 36 36 36 37 36 36 35 35 35 36 36 36 36 36 37 37
32 33 34 35 35 34 32 31 30 29 28 27 28 30 31 32 32 32 34 34 33 33 34 35 37 37 36 36 36 34 32 32 34 35 34 33 33 34 36 38 38 38 38 37 35 35 37 36 36 37 37 38 39 40 40 39 37 36 35 34 34 35 35 35 35 35 35 36 36 36 37 37 37 37
32 32 33 34 35 35 33 31 31 30 28 28 30 31 31 32 32 32 32 31 32 33 34 35 37 37 36 35 35 35 33 29 28 30 32 32 33 34 35 37 38 38 38 37 35 35 36 35 34 34 33 33 34 34 35 34 34 34 34 33 33 34 35 35 36 36 36 36 36 36 37 37 37 37
34 34 33 33 33 33 32 32 32 32 31 30 30 32 32 31 33 34 32 31 31 33 34 34 34 34 34 34 36 37 34 28 25 30 35 36 36 36 36 36 38 38 37 36 35 35 35 34 34 32 31 30 31 32 32 33 32 32 32 32 33 34 35 36 36 36 36 36 36 36 37 37 37 37
30 32 33 33 33 32 32 31 31 32 33 33 31 30 30 30 32 32 31 30 30 30 32 33 33 33 33 33 34 34 32 28 28 32 36 36 35 36 36 36 36 36 36 36 34 33 34 34 33 31 29 30 31 32 32 32 31 31 32 33 34 35 35 35 35 35 36 37 38 38 39 39 39 39
25 27 29 31 34 34 33 31 30 30 33 36 34 31 30 31 32 30 28 29 28 28 29 31 32 33 34 33 33 33 32 31 31 32 34 34 33 34 35 36 35 34 35 36 34 33 34 34 33 32 30 29 31 32 32 32 31 31 32 33 34 34 33 33 34 35 37 38 39 39 39 39 38 38
26 26 26 27 30 34 34 32 30 29 31 36 36 34 33 33 31 27 27 28 28 28 28 29 29 31 32 32 33 34 35 34 33 32 33 33 32 31 32 35 36 35 35 34 33 34 34 34 33 32 31 29 29 29 29 30 31 31 31 31 32 32 32 33 34 35 36 36 37 37 37 37 36 37
25 25 24 24 25 29 32 32 30 27 29 34 37 36 35 34 30 28 29 30 29 30 30 30 31 31 31 31 31 32 34 34 33 34 34 33 31 30 30 31 33 35 35 34 32 32 33 33 32 31 30 30 31 29 26 25 26 28 29 29 30 30 31 33 34 34 34 35 35 36 36 35 35 36
23 21 21 20 20 24 29 30 29 27 27 31 36 37 34 32 30 30 31 32 32 34 34 34 35 34 33 34 33 32 32 33 34 35 34 32 29 28 27 28 29 31 32 32 31 31 30 30 30 30 30 31 31 30 28 25 23 23 25 26 27 28 29 31 32 32 33 33 34 34 34 35 35 35
18 16 15 15 17 22 27 28 28 28 27 28 33 34 32 30 28 30 32 34 35 36 36 36 37 36 36 37 37 36 34 34 35 35 33 31 29 28 28 28 28 28 27 28 30 30 28 27 27 28 28 29 29 28 28 27 24 23 24 25 26 27 28 29 30 30 31 32 32 33 33 34 34 34
6 7 8 9 11 17 24 26 26 27 27 26 27 28 28 27 28 31 34 36 35 35 35 36 37 37 37 38 39 38 37 35 35 35 33 31 30 29 28 28 28 28 26 26 27 27 27 28 27 26 25 25 26 27 26 24 23 23 24 25 26 26 26 28 29 29 29 30 31 32 32 33 33 33
1 2 4 5 7 11 18 24 26 26 24 23 21 21 23 26 30 33 34 34 34 34 34 34 35 36 37 38 38 39 38 37 36 34 32 31 30 28 26 26 27 27 27 26 26 27 28 28 27 26 25 25 25 25 24 22 22 22 23 24 24 24 25 26 27 27 27 28 30 31 32 32 32 32
1 3 4 6 8 9 13 21 26 26 23 20 20 20 21 26 30 32 31 31 32 32 31 31 32 34 35 37 38 38 37 36 34 31 30 30 29 26 25 26 27 27 27 27 27 27 27 26 25 25 25 25 24 23 21 21 22 22 22 23 22 22 23 24 25 25 26 27 28 29 30 31 30 30
3 3 2 5 8 9 12 17 22 23 21 20 21 22 22 23 24 26 26 26 26 27 27 28 30 31 33 35 36 36 34 32 29 27 28 28 27 26 25 25 26 26 26 25 25 25 24 24 24 24 23 22 22 21 20 21 22 21 20 20 19 20 20 21 21 22 24 25 27 28 29 29 29 29
6 6 4 3 6 10 14 16 19 21 21 21 22 21 19 19 20 21 23 22 22 22 22 23 26 29 31 33 33 33 31 28 26 26 27 27 26 25 25 26 26 25 25 24 24 23 23 22 22 21 21 20 19 19 20 21 20 19 17 17 18 20 20 20 20 21 22 25 27 28 28 28 29 29
5 5 5 5 7 10 13 17 19 20 20 20 19 18 18 20 21 21 21 19 17 16 17 19 23 26 29 31 31 30 28 26 25 27 28 26 24 24 25 25 24 24 23 23 22 22 21 21 20 20 19 19 19 19 20 19 18 17 16 17 18 19 19 18 20 21 22 25 28 29 29 29 28 27
3 1 4 7 10 11 13 15 16 17 18 18 18 19 20 20 20 18 16 13 12 13 16 18 20 24 27 29 30 29 27 25 26 28 27 25 24 24 24 24 23 22 22 21 21 21 20 20 20 19 18 18 19 19 19 19 17 16 16 18 19 18 17 17 20 21 23 25 27 29 30 30 28 26
3 0 2 5 8 9 10 12 13 15 17 18 19 20 19 17 15 13 11 10 11 13 15 17 19 22 24 26 28 27 25 25 27 28 27 25 24 24 23 23 22 22 21 21 20 20 20 19 19 18 18 18 19 19 19 18 17 16 16 17 18 17 17 18 20 22 24 25 26 29 32 32 30 27
5 2 1 2 4 6 8 9 11 13 15 16 18 18 17 15 13 10 8 9 11 13 15 16 18 20 21 24 26 26 24 26 28 28 26 25 24 23 22 21 21 21 20 20 20 19 19 18 18 19 19 18 19 19 17 15 14 15 16 16 17 18 19 20 22 24 25 25 26 29 32 34 32 28
6 5 3 2 2 3 5 7 9 11 13 14 15 15 13 11 9 8 8 9 11 12 14 14 16 18 20 23 25 25 25 26 27 26 25 24 24 23 22 22 21 21 20 19 19 19 19 18 19 19 18 18 19 19 17 14 14 16 17 17 17 18 19 21 24 25 24 25 27 29 32 35 35 31
7 6 5 4 2 2 3 4 6 9 10 12 12 11 9 7 6 7 9 10 12 13 14 14 15 16 18 21 24 25 25 25 25 25 24 23 23 23 23 22 22 21 20 20 20 20 19 19 19 19 18 19 19 19 17 16 16 17 17 17 18 18 20 22 24 25 25 26 28 29 31 34 35 33
8 7 5 5 3 2 2 3 5 7 9 10 10 8 6 5 5 6 8 10 13 14 14 14 15 15 17 20 22 23 24 24 24 24 23 23 23 23 22 22 22 21 20 20 20 20 19 19 19 18 18 19 18 18 19 20 20 19 18 18 19 19 20 22 24 26 27 27 28 30 32 33 34 33
7 7 6 5 5 4 4 4 5 7 9 9 8 6 4 3 3 4 7 10 13 15 15 15 15 16 17 19 21 22 22 22 22 23 23 23 22 21 21 21 21 20 20 20 20 20 19 18 16 17 18 19 20 20 22 23 23 22 20 19 19 20 22 23 25 27 29 28 29 31 33 34 34 32
6 7 7 6 6 5 5 5 6 7 8 8 6 4 2 2 3 4 6 9 12 14 15 16 17 17 18 19 20 21 21 21 21 22 22 22 21 21 21 21 20 21 21 20 20 19 17 15 16 18 20 21 21 22 24 26 27 25 23 21 20 21 23 24 26 28 29 29 29 32 34 34 34 34
6 6 6 6 6 6 6 6 6 7 7 6 5 3 1 2 3 5 8 10 12 15 16 16 17 18 19 19 20 20 21 21 22 22 22 22 22 22 22 22 22 22 21 20 18 16 15 16 19 21 22 22 23 25 27 29 29 28 27 25 24 23 24 25 26 27 29 29 30 32 34 32 32 34
8 6 4 5 6 6 7 6 6 6 6 5 5 3 2 2 2 3 6 10 13 15 16 17 17 18 19 19 19 20 21 21 21 21 21 22 22 22 22 22 22 21 20 19 17 17 18 20 22 23 23 24 25 27 29 30 30 31 30 29 28 27 26 26 27 27 29 30 30 31 31 30 31 33
7 7 5 4 4 5 6 7 7 6 6 5 5 4 4 4 3 3 4 7 10 12 14 16 16 17 18 19 19 20 20 20 20 20 21 21 22 22 22 21 21 21 21 20 20 21 22 23 23 24 26 27 27 29 30 31 32 32 32 31 31 30 29 29 29 29 30 30 29 28 28 28 29 31
5 6 5 4 3 3 4 5 6 7 7 7 7 7 6 6 5 4 4 6 8 10 12 14 15 16 17 18 19 19 20 19 20 21 21 22 23 23 22 22 23 23 23 23 24 24 25 25 26 27 28 29 29 30 31 32 32 33 33 33 33 33 32 31 31 32 32 31 28 26 26 25 26 28
Wind_Direction
258 259 259 259 259 256 253 251 246 243 242 242 244 244 240 235 234 237 241 245 250 252 253 253 254 251 248 248 247 245 245 243 241 238 234 231 230 230 232 232 230 229 227 227 227 225 224 224 225 225 225 225 226 227 227 226 225 222 221 223 224 224 224 224 226 227 227 228 229 228 226 229 232 227
257 258 261 263 264 261 258 256 253 251 247 244 245 246 245 241 237 236 240 247 251 252 253 254 254 252 249 246 245 244 243 242 240 238 235 233 232 232 233 231 230 228 226 225 226 225 223 223 224 226 226 226 227 229 228 227 227 225 223 223 224 226 226 225 226 228 228 227 228 228 224 227 232 224
257 258 260 263 265 267 264 259 256 255 254 251 249 249 248 247 244 241 240 246 252 252 253 255 255 253 252 249 246 244 242 241 239 237 237 237 236 235 233 232 230 228 226 224 225 226 225 224 225 226 227 227 228 229 230 229 228 227 226 225 225 227 229 231 234 236 236 234 235 235 230 232 236 226
255 257 259 262 264 265 265 261 257 255 254 254 252 251 250 249 249 246 240 242 249 251 252 255 256 254 252 250 248 246 244 243 241 239 238 238 238 236 233 232 231 230 227 225 224 226 228 229 230 230 230 230 229 230 231 232 231 229 228 228 228 230 233 236 239 241 242 241 241 243 239 240 242 233
257 258 260 263 264 264 264 261 258 254 253 253 252 251 251 250 250 249 243 241 245 249 249 251 253 253 251 248 247 245 244 244 243 242 241 240 239 237 235 233 232 231 230 227 225 226 229 232 234 236 235 234 232 232 232 232 232 231 230 230 231 233 236 238 240 239 240 241 242 243 243 242 243 240
259 259 261 263 263 262 262 259 257 254 252 252 251 249 249 250 251 251 248 245 245 247 247 248 250 250 249 247 245 243 243 243 244 245 245 244 242 240 238 235 234 233 231 229 227 227 229 231 234 237 238 238 237 236 233 232 232 231 230 230 231 232 235 237 237 238 238 240 240 241 242 242 243 244
257 256 257 259 259 259 260 259 259 256 252 250 250 248 247 247 249 251 251 248 247 248 247 247 248 248 248 247 246 244 244 244 245 245 244 245 244 242 240 238 236 235 234 231 229 229 230 231 233 235 238 239 240 238 235 232 231 230 229 229 231 232 234 235 237 238 239 240 240 241 242 243 244 244
255 254 254 255 257 260 262 261 261 258 253 250 249 247 245 244 245 248 250 249 249 250 248 247 248 248 248 249 249 247 244 243 243 243 243 243 243 243 241 239 238 237 236 235 233 232 232 232 234 235 236 237 237 236 235 232 229 228 229 230 231 233 234 237 238 239 240 240 241 242 243 243 244 245
255 255 254 256 258 260 261 261 260 258 255 252 249 247 244 243 242 243 247 249 249 249 247 246 246 246 246 247 248 247 244 241 240 239 240 242 244 245 245 242 240 239 239 238 237 236 235 235 235 236 235 234 233 233 234 233 230 230 231 232 233 234 235 237 239 240 241 242 243 243 243 243 245 245
254 254 253 255 256 256 258 260 259 257 255 253 251 248 244 241 241 241 242 246 249 249 248 245 243 242 242 243 244 244 242 241 240 238 238 241 245 248 248 245 241 240 240 240 240 240 239 238 236 235 233 231 231 232 233 233 233 234 235 236 236 237 238 239 240 240 241 243 245 245 245 245 245 245
254 254 253 252 253 253 255 258 260 258 255 253 252 251 247 242 240 239 240 241 245 249 249 245 242 241 241 241 242 242 241 240 240 241 241 241 243 244 245 245 243 241 241 241 241 242 243 243 240 237 234 231 229 229 232 233 234 235 237 239 240 242 243 244 245 244 243 243 245 247 247 247 247 248
254 253 251 249 249 252 255 257 259 258 256 253 251 250 250 245 240 237 237 237 239 244 248 246 244 243 242 240 239 239 236 233 235 239 242 243 243 243 244 246 246 244 242 241 241 242 243 243 242 239 235 232 229 228 230 233 235 235 237 240 242 244 246 247 249 249 248 247 247 248 249 249 249 249
252 251 250 249 249 252 254 256 258 258 256 252 249 247 249 246 239 233 233 235 235 238 243 244 242 242 242 240 238 236 234 236 239 240 239 241 244 245 245 245 245 245 244 243 242 242 242 242 241 238 235 233 233 233 234 235 236 237 238 240 241 244 246 248 250 250 250 250 250 250 250 250 250 250
253 251 250 250 251 254 255 255 257 258 256 252 248 246 246 246 239 232 230 232 233 234 238 240 239 239 240 242 241 241 243 245 243 240 238 240 242 242 242 243 244 244 244 244 244 243 243 242 240 238 236 234 234 235 236 237 239 241 241 242 244 245 247 248 250 250 250 250 251 251 251 251 251 251
257 255 252 251 253 255 256 256 255 255 254 251 249 246 245 245 243 237 232 230 230 232 235 237 237 237 241 243 244 246 249 247 243 242 242 242 239 238 240 242 243 242 241 242 244 244 244 244 243 241 239 236 234 234 236 239 243 246 247 248 248 248 248 249 249 250 250 250 250 251 251 251 250 250
259 258 255 254 254 255 255 256 255 254 252 248 246 246 245 245 245 244 240 237 234 233 236 237 236 237 241 244 244 246 248 249 247 245 244 242 239 239 242 244 245 245 243 241 242 244 244 244 243 243 242 239 235 235 237 241 245 249 250 249 249 248 248 248 248 248 249 249 250 250 250 250 250 250
258 258 257 256 255 254 253 254 254 254 253 248 243 242 243 242 242 244 245 244 242 240 240 239 239 240 240 240 243 246 248 251 251 248 245 245 242 241 244 247 247 246 245 243 243 245 245 244 244 244 243 242 240 240 242 245 247 249 249 248 247 246 246 245 245 245 245 246 247 247 247 248 248 249
261 260 259 258 256 254 253 253 253 251 250 247 242 239 239 239 239 241 242 242 242 242 242 241 242 243 242 242 245 248 250 251 251 251 250 249 246 246 249 249 245 244 245 245 244 246 248 246 245 245 244 244 245 245 247 248 248 247 245 244 244 243 242 241 240 240 240 242 243 244 245 245 246 248
265 262 259 258 257 255 253 251 250 249 246 243 239 237 237 238 240 241 239 237 236 236 237 239 241 242 244 245 248 251 252 254 254 254 256 257 255 253 250 247 243 243 244 244 242 245 248 248 247 247 248 248 248 249 248 247 245 242 240 241 242 241 238 237 237 237 238 239 241 242 243 244 245 247
265 263 261 259 256 254 252 250 249 248 244 240 236 234 235 236 239 241 240 237 236 236 237 240 242 242 243 245 248 249 250 254 257 254 252 252 250 245 242 241 241 242 242 241 240 242 246 248 249 250 251 249 248 247 245 243 241 240 241 243 243 239 236 236 236 236 237 238 240 242 243 244 244 246
263 260 258 258 256 254 251 249 248 246 241 238 236 233 234 237 238 239 240 239 240 241 241 243 244 244 244 245 247 246 246 250 254 249 244 243 241 238 235 235 238 239 240 239 239 240 243 246 248 250 249 246 244 242 241 242 241 242 242 241 238 236 235 235 236 236 237 239 240 241 242 242 243 244
266 258 251 249 250 252 251 248 247 244 238 236 236 233 231 234 235 235 235 235 238 239 238 238 241 242 243 245 248 247 246 247 248 246 245 245 242 238 235 233 234 236 238 239 239 239 241 244 246 246 245 245 244 243 242 243 242 242 241 238 236 235 236 236 237 238 238 239 239 241 241 242 244 245
277 267 255 245 241 244 248 247 245 243 238 234 234 232 230 231 233 232 231 231 231 231 229 230 234 238 240 242 245 245 244 243 243 245 248 248 244 241 238 233 231 232 235 238 237 237 240 243 243 243 242 244 247 247 245 244 243 241 240 238 237 237 238 238 239 239 240 241 242 244 244 245 246 248
286 278 268 254 240 235 238 242 242 240 237 234 233 232 231 231 232 230 229 228 227 226 225 224 226 231 234 237 240 241 241 241 241 241 245 246 244 243 240 235 234 238 241 242 239 238 239 240 240 241 241 243 247 249 248 246 243 240 238 237 237 238 238 239 239 240 241 242 243 243 244 246 247 249
284 277 269 262 247 231 228 232 235 233 232 231 232 233 232 232 233 234 235 234 233 233 232 229 227 228 230 233 236 238 240 240 238 237 241 244 244 243 241 239 239 241 243 244 242 239 237 237 237 238 239 241 244 248 248 244 239 235 235 236 236 236 237 238 238 239 239 240 241 243 244 245 246 248
273 269 264 261 249 229 221 224 227 227 226 226 229 233 236 235 235 238 241 241 240 239 238 235 232 231 231 231 232 232 233 235 235 238 242 244 243 242 243 243 244 245 245 246 244 240 238 237 238 238 238 241 244 245 244 239 234 233 233 233 232 232 233 236 237 238 240 241 242 243 244 244 245 247
270 266 260 255 244 228 218 217 220 223 223 222 225 230 234 234 234 236 239 240 240 239 238 236 233 231 231 231 231 230 229 230 234 238 240 240 239 238 237 238 241 244 247 247 246 243 239 237 239 240 240 240 241 241 241 238 236 235 234 234 235 236 236 238 240 241 243 244 243 243 243 244 246 247
278 259 248 243 239 229 219 213 212 216 220 220 220 223 227 231 232 233 234 236 237 236 235 233 232 230 229 229 230 230 229 230 234 235 233 232 233 232 232 233 235 236 238 241 242 240 238 239 241 241 238 235 235 237 240 241 240 238 237 236 238 240 241 242 243 243 244 245 245 244 245 245 246 248
116 219 229 231 233 228 221 213 206 206 213 217 217 218 224 229 230 231 233 234 234 234 234 232 231 230 229 228 229 230 230 230 230 228 225 224 225 227 227 228 230 230 231 232 233 235 237 238 238 236 233 233 235 239 243 244 242 239 238 238 238 239 240 242 244 245 245 245 246 246 247 248 248 249
312 294 270 239 227 223 220 213 206 202 205 212 214 218 224 228 229 232 233 233 233 234 234 233 231 230 228 226 226 226 226 225 223 222 221 220 220 222 223 223 223 223 224 226 229 232 234 234 233 231 232 235 238 241 243 244 242 239 239 240 239 237 239 241 244 247 247 246 247 247 247 249 250 251
0 345 274 222 213 203 195 195 197 197 200 207 212 217 223 226 229 232 233 234 235 235 234 232 231 230 228 225 222 220 219 218 217 219 220 219 217 217 218 218 218 220 223 226 228 228 229 229 229 231 233 237 240 241 241 243 242 240 240 242 241 240 240 241 243 245 247 247 247 248 249 250 252 253
41 53 77 140 171 175 172 174 182 189 195 203 209 213 217 220 223 228 230 230 229 229 231 231 231 229 225 221 217 214 213 213 213 214 215 215 215 215 215 215 217 220 223 225 225 224 224 225 227 231 233 236 238 238 239 242 244 244 244 246 247 246 246 247 246 246 248 251 251 252 253 253 253 255
38 72 95 126 147 159 167 172 177 184 191 199 205 211 217 220 222 223 223 220 220 224 230 231 230 227 222 217 213 210 209 209 210 210 209 210 212 213 214 216 220 223 224 223 222 222 223 225 228 230 232 233 236 238 241 245 248 250 251 253 253 252 251 252 252 251 252 255 257 258 258 257 258 259
355 124 143 154 158 163 170 174 179 187 194 200 205 209 213 214 212 209 208 211 221 229 230 228 227 226 221 215 210 207 207 207 205 205 207 211 214 214 215 217 220 221 221 221 222 223 224 225 227 230 233 236 239 242 246 250 252 254 255 256 256 255 253 255 259 261 261 263 266 267 266 265 264 266
5 342 172 171 170 172 180 185 190 196 200 203 205 203 198 195 196 198 205 217 227 227 221 219 222 224 221 216 211 208 208 206 204 204 208 212 215 216 217 219 218 216 216 218 220 222 224 225 228 231 234 238 242 245 249 253 257 257 255 255 259 261 261 261 263 265 268 271 274 276 276 274 273 274
34 33 63 158 171 177 184 189 193 196 199 201 200 195 188 186 190 198 213 226 228 220 212 212 216 219 218 216 213 210 208 206 205 208 212 213 214 215 216 214 213 214 216 218 219 222 224 226 228 231 233 237 243 247 249 253 257 259 259 261 265 268 268 267 267 268 270 274 277 279 282 282 281 282
45 35 46 79 143 174 183 187 190 193 196 196 193 188 186 189 195 206 217 219 215 209 206 209 214 216 215 215 212 208 206 207 210 212 214 214 214 214 211 209 209 211 213 216 220 223 225 227 230 233 235 239 246 251 255 255 255 259 265 268 270 270 270 271 272 272 274 277 277 280 283 285 285 287
64 54 51 54 74 136 171 188 191 191 192 191 187 184 184 189 203 214 214 207 200 198 200 206 212 213 213 213 210 207 206 208 211 213 213 214 214 211 208 208 210 211 211 215 220 224 226 229 233 237 240 244 251 259 265 265 262 264 270 273 274 275 275 276 277 278 279 280 281 282 283 284 286 289
81 79 70 61 72 107 136 168 184 185 184 183 180 177 180 193 207 213 211 205 199 196 198 202 205 206 207 208 209 208 208 209 210 212 214 213 212 211 210 210 211 211 212 216 221 225 229 233 238 243 248 252 258 264 268 270 271 273 276 279 281 282 281 280 282 283 283 284 285 285 284 284 286 290
84 90 89 82 82 100 122 141 161 170 172 173 171 168 173 192 206 215 217 210 203 200 200 201 202 202 202 203 206 208 211 214 216 216 213 211 210 211 212 212 213 215 217 219 224 230 235 240 246 252 255 259 263 267 270 272 275 277 280 283 283 282 282 282 283 284 286 287 288 287 286 287 290 292
79 89 95 97 97 108 123 133 151 167 171 170 169 168 176 202 214 219 221 216 210 205 203 202 202 202 202 204 207 210 213 216 216 214 212 211 211 212 213 214 216 220 223 226 230 236 243 249 252 254 258 262 266 269 271 273 277 281 285 286 283 281 283 285 286 287 288 289 290 288 289 292 295 295
69 87 99 104 107 118 131 137 155 173 178 176 178 186 229 250 234 223 215 213 211 209 206 205 205 205 206 208 210 212 213 212 211 211 212 212 213 213 215 218 221 226 230 234 239 245 250 252 253 257 263 266 268 270 271 275 280 284 286 286 285 284 283 284 285 286 286 286 286 286 289 293 294 293
60 73 95 111 113 121 135 144 157 174 183 186 194 220 281 305 291 251 218 207 207 208 208 208 208 208 208 208 207 208 210 210 211 212 214 215 217 219 222 225 229 235 241 246 249 252 253 254 258 263 266 268 269 271 274 277 281 283 285 287 288 286 284 284 283 282 280 280 280 282 285 288 287 287
52 61 79 108 121 130 142 150 158 170 183 195 211 236 264 286 306 291 225 206 203 203 204 205 206 206 206 205 205 207 210 213 215 217 218 221 224 227 231 235 239 244 248 251 253 255 257 260 264 265 267 269 271 272 274 277 280 282 284 287 288 288 288 287 285 282 279 277 277 278 280 280 280 282
41 54 66 82 108 136 156 169 176 184 195 207 219 234 249 261 279 282 245 216 208 204 204 205 207 208 209 211 213 215 217 219 221 223 225 228 231 234 238 242 245 248 251 254 257 260 262 263 264 266 268 271 271 272 275 278 280 282 284 286 287 289 290 289 287 285 283 279 278 278 278 276 277 280